TANSEI 1 (MS-T1)

Satellite information

Favourite Embed

Satellite Type and Status

PAYLOADIN ORBIT

Key statistics

Satellite TANSEI 1 (MS-T1) at a glance.

Uptime

19936

Days in orbit

Revolutions

≈ 13.6

Per day

Orbit

LEO

Low Earth Orbit

Inclination

29.7

Latest

Satellite identification and parameters

Extended collection of information and parameters for TANSEI 1 (MS-T1).

Object identification

Identified? True

Debris? False

Object name: TANSEI 1 (MS-T1)

International designator: 1971-011A

Object number (NORAD): 4952

Object ID (CCSDS): 4952

Country: JAPAN (JPN)

Current information (Y/N): Y

RCS size: MEDIUM

Orbital parameters

Period: 105.99 minutes

Inclination: 29.6679 deg

SMA: 7418.855 km

Apoapsis: 1099.741 km

Periapsis: 981.7 km

RAAN: 307.0372 deg

Eccentricy: 0.00795547

Argument of periapsis: 256.4388 deg

Mean anomaly: 122.5225 deg

Mean motion: 13.58618122 rev/day

Mean motion (dot): 0.00000123 rev/day2

B* drag term: 0.000074128882 1/REarth

Two-line elements (TLE)

Creation date: Sept. 15, 2025, 7:50 p.m.

Reference frame: TEME

Reference center: EARTH

Epoch: Sept. 15, 2025, 10:51 a.m. UTC

TLE line 0: 0 TANSEI 1 (MS-T1)

TLE line 1: 1 04952U 71011A 25258.45236874 .00000123 00000-0 74129-4 0 9994

TLE line 2: 2 04952 29.6679 307.0372 0079555 256.4388 122.5225 13.58618122711140

Live tracking on map

Real-time ground track for satellite TANSEI 1 (MS-T1).

In-orbit conjunctions

A list of the most updated potential collisions computed for object TANSEI 1 (MS-T1).

Target Orbit TCA Probability of collision Miss distance Type
SL-16 DEB LEO 2024-08-19 01:50:57 0.0001186902 479.0 (m) DEBRIS

Associated space launch

Japanese technological test satellite designed by the Institute of Space and Aeronautical Science, University of Tokyo.

TANSEI 1 (MS-T1) was lifted into orbit during the mission ‘Mu-4S | Tansei-1’, on board a Mu-4S space rocket.

The launch took place on Feb. 16, 1971, 4 a.m. from Mu Center.

For more information about the launch, click the button.

Launch to space Mu-4S | Tansei-1
Mu-4S | Tansei-1

Agency: N/A

Status: Launch Successful

Launch date: Feb. 16, 1971, 4 a.m. UTC

Rocket: Mu-4S

Launch pad: Mu Center

Location: Uchinoura Space Center, Japan

...

Latest news about this satellite

There are no fresh news available about this satellite. Check back as we update our databases every day.


Newsletter sign-up

Weekly statistics, charts and insights to help you stay on top of the space industry.